[[{"header":{"parameterUnit":"m.s-1","parameterCategory":1,"la1":30.2991,"la2":30.254,"lo1":-89.0895,"lo2":-89.0444,"dy":0.0017,"dx":0.0017,"nx":28,"ny":28,"refTime":"2025-04-15T03:00:00:Z","depth":0,"parameterNumber":2,"parameterNumberName":"U-component_of_WINDS"},"data":[0,0,0,0,0,0,0,0,0,0,0,0,0,0,0,0,0,0,0,0,0,0,0,0,0,0,0,0,0,0,0,0,0,0,0,0,0,0,0,0,0,0,0,0,0,0,0,0,0,0,0,0,0,0,0,0,0,0,-4.93,-4.93,0,-4.9272,-4.9272,-4.9272,-4.9153,-4.915,-4.9147,-4.9145,-4.9119,-4.9121,-4.9123,0,0,0,0,0,0,0,0,0,0,0,0,0,-4.9252,-4.9253,-4.93,-4.93,-4.9299,-4.9272,-4.9272,-4.9272,-4.9153,-4.915,-4.9147,-4.9144,-4.9118,-4.9121,-4.9123,0,0,0,0,0,0,0,0,0,0,0,0,0,-4.9254,-4.9254,-4.93,-4.9237,-4.9231,-4.9272,-4.9272,-4.9272,-4.9154,-4.915,-4.9146,-4.9142,-4.9118,-4.912,-4.9123,-4.9224,0,0,-4.9132,-4.9133,0,0,0,0,0,0,0,0,-4.9254,-4.9255,-4.9247,-4.9241,-4.9235,-4.9212,-4.9245,-4.9256,-4.9155,-4.9183,-4.9145,-4.914,-4.9153,-4.9153,-4.9157,-4.9223,-4.9221,-4.9132,-4.9134,-4.9135,-4.9136,0,0,0,0,0,0,0,-4.9254,-4.9256,-4.9289,-4.9247,-4.9239,-4.9211,-4.9206,-4.9247,-4.9192,-4.9181,-4.9172,-4.917,-4.9149,-4.9155,-4.9156,-4.9221,-4.9132,-4.9134,-4.9136,-4.9137,-4.9369,-4.9373,0,0,0,0,0,0,-4.9262,-4.9257,-4.929,-4.9288,-4.9234,-4.9215,-4.921,-4.9223,-4.9191,-4.9182,-4.9174,-4.9165,-4.9152,-4.9152,-4.9154,-4.9271,-4.9135,-4.9138,-4.9139,-4.9364,-4.937,-4.9375,0,0,0,0,0,0,-4.9262,-4.9266,-4.9291,-4.927,-4.9271,-4.922,-4.9236,-4.9225,-4.923,-4.9186,-4.9176,-4.9189,-4.9148,-4.915,-4.9207,-4.9268,-4.9139,-4.9141,-4.9359,-4.9366,-4.9372,-4.9505,0,0,0,0,0,0,-4.9261,-4.9267,-4.9304,-4.9272,-4.9273,-4.9345,-4.924,-4.9228,-4.9235,-4.9223,-4.9198,-4.919,-4.9145,-4.9204,-4.921,-4.927,-4.9144,-4.9354,-4.9362,-4.937,-4.9495,-4.9515,-4.9533,0,0,0,0,0,-4.9259,-4.9343,-4.9307,-4.9311,-4.9318,-4.9348,-4.9349,-4.9296,-4.924,-4.9278,-4.925,-4.919,-4.926,-4.9211,-4.9217,-4.9278,-4.9349,-4.936,-4.9369,-4.9486,-4.9511,-4.9532,0,0,0,0,0,0,-4.9384,-4.9337,-4.9297,-4.9372,-4.9365,-4.9328,-4.9374,-4.9323,-4.9332,-4.9321,-4.9255,-4.925,-4.9318,-4.9303,-4.9249,-4.9374,-4.9295,-4.9307,-4.9382,-4.9405,-4.9423,-4.9426,-4.9146,0,0,0,0,0,-4.942,-4.9448,-4.9406,-4.9476,-4.9475,-4.9425,-4.9436,-4.9396,-4.9386,-4.9383,-4.9359,-4.9352,-4.9373,-4.9388,-4.9404,-4.9492,-4.9485,-4.9537,-4.9556,-4.9572,-4.9583,-4.9629,-4.9652,-4.9407,-4.9407,-4.9407,0,0,-4.9496,-4.9473,-4.9495,-4.9501,-4.9491,-4.9522,-4.9424,-4.946,-4.9483,-4.9389,-4.9441,-4.9424,-4.9412,-4.9486,-4.9516,-4.9476,-4.9649,-4.9584,-4.9597,-4.96,-4.9642,-4.9665,-4.9686,-4.9414,-4.9413,-4.9412,0,0,-4.9649,-4.9635,-4.9692,-4.9684,-4.9669,-4.9636,-4.965,-4.9621,-4.9605,-4.9657,-4.9587,-4.9613,-4.9649,-4.9644,-4.9647,-4.9798,-4.9745,-4.9805,-4.9905,-4.9951,-4.997,-4.9987,-5.0043,-5.0063,-4.9817,-4.9817,-4.9817,0,-4.9745,-4.9788,-4.9728,-4.977,-4.9775,-4.969,-4.9749,-4.9743,-4.9736,-4.9742,-4.9695,-4.974,-4.9726,-4.9797,-4.9834,-4.9839,-4.9853,-4.9809,-4.9972,-4.9988,-5.0003,-5.0055,-5.0076,-4.9824,-4.9824,-4.9823,-4.9822,0,-4.9907,-4.9939,-4.9987,-4.9981,-4.9991,-5.0041,-4.999,-5.0007,-4.9966,-4.9938,-4.9992,-4.9972,-4.9984,-4.9997,-4.9957,-5.0064,-5.0039,-4.9984,-4.9903,-5.0035,-5.0083,-5.0103,-4.9835,-4.9833,-4.983,-4.9828,0,0,-5.014,-5.01,-5.0119,-5.0115,-5.0093,-5.0116,-5.0163,-5.0173,-5.019,-5.0188,-5.0226,-5.0258,-5.0207,-5.021,-5.0168,-5.0209,-5.0332,-5.0148,-5.0147,-5.0185,-5.0449,-5.0492,-5.0516,-5.0296,-5.0299,-5.0302,-5.0451,0,-5.0287,-5.0364,-5.0311,-5.0397,-5.0425,-5.0345,-5.0385,-5.0377,-5.0352,-5.0373,-5.0345,-5.037,-5.0299,-5.0301,-5.0337,-5.031,-5.0385,-5.0298,-5.0332,-5.0334,-5.0339,-5.0541,-5.0586,-5.0728,-5.0469,-5.0472,-5.0474,0,-5.047,-5.0475,-5.0563,-5.0536,-5.0546,-5.0583,-5.0589,-5.061,-5.0598,-5.0577,-5.0581,-5.0529,-5.0573,-5.0493,-5.0554,-5.0496,-5.0507,-5.0495,-5.05,-5.0502,-5.0413,-5.0551,-5.0772,-5.0794,-5.0503,-5.0501,-5.0499,0,-5.0632,-5.0661,-5.0718,-5.0717,-5.0686,-5.0714,-5.0703,-5.0687,-5.0697,-5.0702,-5.0708,-5.0719,-5.0725,-5.0735,-5.0688,-5.0633,-5.0756,-5.0671,-5.074,-5.0742,-5.0771,-5.077,-5.0999,-5.0776,-5.0776,-5.0775,-5.0775,0,-5.0803,-5.0861,-5.079,-5.0826,-5.0888,-5.0827,-5.0891,-5.0871,-5.0858,-5.0889,-5.0819,-5.085,-5.0785,-5.0809,-5.0773,-5.083,-5.0832,-5.0818,-5.0808,-5.0825,-5.0827,-5.0832,-5.0822,-5.0781,-5.0779,-5.0778,-5.0777,0,-5.0996,-5.0951,-5.1008,-5.0973,-5.0966,-5.1014,-5.0985,-5.1016,-5.0986,-5.1026,-5.1032,-5.0985,-5.101,-5.0963,-5.0982,-5.0957,-5.1038,-5.1012,-5.1042,-5.1035,-5.1108,-5.1102,-5.1349,-5.1379,-5.1136,-5.1138,-5.114,0,-5.1109,-5.1151,-5.1122,-5.1137,-5.1129,-5.1154,-5.1164,-5.1105,-5.1118,-5.1109,-5.1142,-5.1161,-5.1173,-5.1216,-5.1185,-5.1199,-5.1174,-5.1259,-5.1175,-5.1192,-5.1177,-5.1175,-5.118,-5.1277,-5.128,-5.1282,-5.1284,0,-5.1315,-5.129,-5.1306,-5.1315,-5.1328,-5.1332,-5.1332,-5.1348,-5.1286,-5.1305,-5.1329,-5.1338,-5.1357,-5.1377,-5.1384,-5.1372,-5.1319,-5.131,-5.1328,-5.1346,-5.1363,-5.1356,-5.109,-5.1305,-5.1303,-5.1302,-5.1301,-5.13,-5.1472,-5.1506,-5.1491,-5.1511,-5.1504,-5.1505,-5.1533,-5.1507,-5.1525,-5.1536,-5.15,-5.1533,-5.1521,-5.1524,-5.1519,-5.1544,-5.1506,-5.1531,-5.1537,-5.1545,-5.1557,-5.1358,-5.1545,-5.1544,-5.1544,-5.1543,-5.1543,0,-5.1675,-5.1661,-5.1681,-5.1681,-5.1698,-5.1644,-5.1641,-5.1659,-5.1688,-5.1681,-5.1694,-5.1722,-5.1741,-5.1711,-5.1725,-5.1752,-5.1728,-5.1758,-5.1756,-5.1755,-5.159,-5.1574,-5.1777,-5.1777,-5.1777,-5.1777,-5.1777,-5.1777,-5.1783,-5.1839,-5.1813,-5.1865,-5.185,-5.1881,-5.1884,-5.1885,-5.1879,-5.1913,-5.1928,-5.1908,-5.1892,-5.1905,-5.192,-5.1911,-5.192,-5.1959,-5.1942,-5.1789,-5.1766,-5.1744,-5.1729,-5.1961,-5.1962,-5.2104,-5.2106,-5.2107]},{"header":{"parameterUnit":"m.s-1","parameterCategory":1,"la1":30.2991,"la2":30.254,"lo1":-89.0895,"lo2":-89.0444,"dy":0.0017,"dx":0.0017,"nx":28,"ny":28,"refTime":"2025-04-15T03:00:00:Z","depth":0,"parameterNumber":3,"parameterNumberName":"V-component_of_WINDS"},"data":[0,0,0,0,0,0,0,0,0,0,0,0,0,0,0,0,0,0,0,0,0,0,0,0,0,0,0,0,0,0,0,0,0,0,0,0,0,0,0,0,0,0,0,0,0,0,0,0,0,0,0,0,0,0,0,0,0,0,-2.7771,-2.7771,0,-2.7779,-2.7779,-2.7779,-2.7735,-2.7734,-2.7733,-2.7732,-2.7739,-2.7741,-2.7742,0,0,0,0,0,0,0,0,0,0,0,0,0,-2.7716,-2.7717,-2.7771,-2.7771,-2.7771,-2.7779,-2.7779,-2.7779,-2.7736,-2.7734,-2.7732,-2.7731,-2.7739,-2.7741,-2.7742,0,0,0,0,0,0,0,0,0,0,0,0,0,-2.7734,-2.7718,-2.7771,-2.775,-2.7749,-2.7779,-2.7779,-2.778,-2.7736,-2.7734,-2.7732,-2.773,-2.7738,-2.774,-2.7742,-2.7793,0,0,-2.7749,-2.775,0,0,0,0,0,0,0,0,-2.7733,-2.7736,-2.7753,-2.7752,-2.775,-2.7754,-2.7763,-2.7784,-2.7736,-2.7741,-2.7732,-2.7729,-2.7746,-2.7747,-2.7753,-2.7794,-2.7794,-2.7749,-2.775,-2.7751,-2.7752,0,0,0,0,0,0,0,-2.7732,-2.7735,-2.7774,-2.7754,-2.7752,-2.774,-2.7741,-2.7767,-2.7754,-2.774,-2.7737,-2.7739,-2.7745,-2.7751,-2.7753,-2.7794,-2.7749,-2.7751,-2.7752,-2.7753,-2.7876,-2.7878,0,0,0,0,0,0,-2.7733,-2.7735,-2.7774,-2.7775,-2.7737,-2.7743,-2.7743,-2.7755,-2.7753,-2.7751,-2.774,-2.7736,-2.7748,-2.775,-2.7753,-2.7812,-2.7751,-2.7753,-2.7754,-2.7874,-2.7876,-2.7879,0,0,0,0,0,0,-2.7732,-2.7737,-2.7774,-2.7754,-2.7757,-2.7746,-2.7759,-2.7756,-2.7762,-2.7753,-2.7751,-2.7749,-2.7747,-2.775,-2.7783,-2.7812,-2.7754,-2.7756,-2.7872,-2.7875,-2.7878,-2.7931,0,0,0,0,0,0,-2.7731,-2.7737,-2.7757,-2.7754,-2.7759,-2.7805,-2.7761,-2.7758,-2.7766,-2.7761,-2.7761,-2.7759,-2.7746,-2.778,-2.7785,-2.7813,-2.7757,-2.7869,-2.7873,-2.7877,-2.7927,-2.7935,-2.7943,0,0,0,0,0,-2.7729,-2.7772,-2.7758,-2.7763,-2.7783,-2.7807,-2.7809,-2.7793,-2.7769,-2.7788,-2.7782,-2.7759,-2.7808,-2.7784,-2.7789,-2.7819,-2.7867,-2.7872,-2.7876,-2.7923,-2.7934,-2.7943,0,0,0,0,0,0,-2.7778,-2.7771,-2.7756,-2.7799,-2.7804,-2.7799,-2.7823,-2.7804,-2.7816,-2.7811,-2.779,-2.779,-2.7827,-2.7826,-2.78,-2.7867,-2.7833,-2.7839,-2.7867,-2.7877,-2.7885,-2.7885,-2.7759,0,0,0,0,0,-2.7793,-2.7813,-2.7806,-2.7845,-2.7848,-2.7835,-2.7845,-2.7832,-2.7836,-2.7837,-2.7834,-2.7838,-2.7854,-2.7865,-2.788,-2.7926,-2.7925,-2.7948,-2.7956,-2.7963,-2.7969,-2.7993,-2.8003,-2.7894,-2.7894,-2.7893,0,0,-2.7826,-2.7825,-2.7839,-2.7854,-2.7856,-2.7877,-2.7837,-2.7861,-2.7876,-2.7841,-2.7872,-2.787,-2.7873,-2.7913,-2.7931,-2.7914,-2.7998,-2.7969,-2.7974,-2.7976,-2.7998,-2.8009,-2.8018,-2.7897,-2.7896,-2.7896,0,0,-2.7896,-2.7897,-2.7929,-2.7932,-2.7936,-2.7927,-2.7935,-2.7933,-2.793,-2.7961,-2.7935,-2.7952,-2.798,-2.7984,-2.7989,-2.806,-2.8039,-2.8065,-2.8108,-2.8131,-2.814,-2.8148,-2.8173,-2.8182,-2.807,-2.807,-2.807,0,-2.7936,-2.7967,-2.7948,-2.7974,-2.7981,-2.795,-2.7982,-2.7985,-2.7994,-2.7999,-2.798,-2.8014,-2.8014,-2.8055,-2.8072,-2.8077,-2.8085,-2.8065,-2.814,-2.8148,-2.8154,-2.8178,-2.8188,-2.8073,-2.8073,-2.8073,-2.8072,0,-2.8016,-2.8037,-2.8063,-2.8071,-2.8081,-2.811,-2.8095,-2.8108,-2.8093,-2.8087,-2.8118,-2.8117,-2.8131,-2.8139,-2.8125,-2.8177,-2.8166,-2.8144,-2.8109,-2.8168,-2.819,-2.8199,-2.8078,-2.8077,-2.8076,-2.8075,0,0,-2.8118,-2.8115,-2.8125,-2.8128,-2.8129,-2.8145,-2.8172,-2.8185,-2.8196,-2.8202,-2.8224,-2.8249,-2.8228,-2.8234,-2.822,-2.8241,-2.8296,-2.8215,-2.8215,-2.8231,-2.8353,-2.8371,-2.8381,-2.8282,-2.8284,-2.8285,-2.8353,0,-2.8186,-2.8233,-2.8216,-2.8263,-2.8282,-2.8252,-2.8276,-2.8279,-2.8273,-2.8288,-2.8281,-2.8298,-2.8269,-2.8273,-2.8292,-2.8286,-2.8321,-2.828,-2.8303,-2.8304,-2.8303,-2.8393,-2.8411,-2.8475,-2.8361,-2.8363,-2.8364,0,-2.8273,-2.8283,-2.8332,-2.8329,-2.8337,-2.8358,-2.8368,-2.8383,-2.8386,-2.838,-2.8386,-2.8368,-2.8393,-2.8359,-2.8393,-2.8366,-2.8374,-2.8372,-2.8374,-2.8376,-2.8338,-2.8397,-2.8495,-2.8505,-2.8377,-2.8376,-2.8375,0,-2.8343,-2.8368,-2.84,-2.8404,-2.8402,-2.8417,-2.8417,-2.8418,-2.8426,-2.8435,-2.844,-2.8452,-2.8459,-2.8468,-2.8453,-2.8429,-2.849,-2.8454,-2.8486,-2.8486,-2.85,-2.85,-2.8601,-2.8505,-2.8505,-2.8505,-2.8504,0,-2.8421,-2.8453,-2.8431,-2.8452,-2.8485,-2.8465,-2.8499,-2.8496,-2.8496,-2.8515,-2.8489,-2.8507,-2.8486,-2.8502,-2.849,-2.8521,-2.8524,-2.8519,-2.8516,-2.8522,-2.8523,-2.8527,-2.8523,-2.8507,-2.8507,-2.8506,-2.8506,0,-2.8505,-2.8492,-2.8526,-2.852,-2.852,-2.8545,-2.854,-2.8558,-2.855,-2.8574,-2.8578,-2.8565,-2.8582,-2.8568,-2.8585,-2.8577,-2.8617,-2.8607,-2.8617,-2.8614,-2.8647,-2.8644,-2.8755,-2.8769,-2.8663,-2.8664,-2.8665,0,-2.8557,-2.858,-2.8577,-2.8587,-2.8589,-2.8606,-2.8615,-2.8596,-2.8606,-2.861,-2.8627,-2.8642,-2.8653,-2.8682,-2.8674,-2.8686,-2.8676,-2.8714,-2.8678,-2.8683,-2.8677,-2.8676,-2.8678,-2.8722,-2.8723,-2.8724,-2.8725,0,-2.8649,-2.8641,-2.8655,-2.8666,-2.8677,-2.8685,-2.8691,-2.8701,-2.8681,-2.8694,-2.8711,-2.8719,-2.8736,-2.8751,-2.8761,-2.876,-2.874,-2.8736,-2.8745,-2.8751,-2.8756,-2.8754,-2.8637,-2.8734,-2.8733,-2.8733,-2.8732,-2.8732,-2.8718,-2.8737,-2.8738,-2.8754,-2.8756,-2.8762,-2.8779,-2.8772,-2.8786,-2.8798,-2.8786,-2.8807,-2.8808,-2.8819,-2.882,-2.8836,-2.882,-2.8832,-2.8835,-2.8838,-2.8843,-2.8753,-2.8838,-2.8837,-2.8837,-2.8837,-2.8837,0,-2.881,-2.8808,-2.8823,-2.8832,-2.8844,-2.8823,-2.8828,-2.884,-2.8859,-2.8861,-2.8872,-2.8892,-2.8906,-2.8899,-2.8911,-2.8925,-2.8916,-2.8929,-2.8928,-2.8928,-2.8856,-2.8848,-2.8936,-2.8936,-2.8936,-2.8936,-2.8936,-2.8936,-2.8859,-2.889,-2.8882,-2.8914,-2.8912,-2.8932,-2.8937,-2.8942,-2.8944,-2.8967,-2.8978,-2.8973,-2.8972,-2.8984,-2.8996,-2.8993,-2.8999,-2.9016,-2.901,-2.8943,-2.8933,-2.8924,-2.8916,-2.9017,-2.9017,-2.9081,-2.9081,-2.9082]}]]